Wind_Speed
35 36 37 38 38 38 38 36 35 33 32 31 29 28 27 26 26 24 23 23 22 21 21 21 20 19 19 19 20 21 23 24 27 28 27 26 26 24 23 22 21 20 18
35 36 37 38 39 39 40 38 37 35 34 33 31 30 29 28 27 26 25 24 23 23 22 21 21 21 20 20 20 21 21 20 24 27 29 29 28 28 26 25 23 22 21
34 34 35 37 38 40 41 40 38 36 35 34 33 31 30 28 27 26 26 24 23 23 22 21 21 21 21 20 20 21 21 21 21 23 27 29 30 30 29 28 26 25 23
31 32 34 35 37 38 39 39 38 37 35 34 33 32 30 29 27 27 26 25 24 23 22 21 20 20 19 19 19 19 20 21 22 23 26 27 29 31 31 30 28 27 26
31 31 31 32 35 38 39 39 38 37 35 34 34 32 30 29 28 27 26 25 24 22 21 20 19 18 17 17 18 18 18 19 20 22 25 26 27 28 31 32 31 29 28
31 30 29 30 33 36 36 37 38 36 34 33 33 32 31 29 28 27 26 25 23 22 20 19 19 17 16 16 15 16 16 18 19 21 22 24 26 27 28 31 33 32 31
30 28 29 29 30 31 34 36 36 34 34 33 33 32 31 30 29 28 27 25 23 22 20 19 19 17 16 15 15 15 15 16 17 18 20 22 24 26 28 30 32 34 33
30 29 28 28 28 28 31 34 35 35 34 34 33 33 32 30 30 29 28 26 25 23 21 20 19 17 16 15 14 15 15 15 16 17 18 20 23 25 26 27 30 33 34
32 30 29 28 27 29 30 33 34 35 34 33 33 33 32 32 31 30 29 28 26 25 24 22 20 19 17 15 15 14 14 15 15 16 18 19 21 23 26 27 28 31 33
36 33 32 31 30 29 31 33 34 34 33 33 33 33 33 33 33 32 31 30 29 27 26 24 23 21 19 17 16 15 15 16 16 16 18 19 21 22 24 27 29 30 31
39 38 37 35 34 33 32 32 33 34 34 35 34 35 34 35 35 34 34 32 31 30 29 27 25 23 21 19 18 17 17 17 17 17 18 20 21 23 24 25 28 30 32
44 43 43 41 40 39 37 36 35 36 37 37 37 37 37 37 37 37 36 35 34 33 32 30 28 26 24 22 20 19 19 19 18 18 19 20 22 23 25 26 27 29 31
50 49 48 48 47 45 44 42 41 40 40 40 40 39 39 39 39 39 38 38 36 35 34 33 31 29 26 24 22 21 20 20 20 19 20 21 22 23 25 26 27 29 30
53 53 53 53 53 53 51 49 48 47 46 45 44 43 42 41 41 41 41 41 40 39 37 36 34 32 29 27 24 23 22 22 21 21 21 21 21 22 24 26 27 29 30
52 54 55 57 58 59 59 58 56 54 53 51 50 48 47 45 45 44 44 43 43 42 41 39 37 35 32 29 27 25 23 22 22 21 22 22 21 22 23 25 27 28 30
51 52 53 55 58 61 62 63 63 61 60 58 56 54 52 51 49 47 47 47 46 45 44 42 40 37 35 32 29 27 25 24 22 22 22 22 22 22 23 24 25 26 28
52 53 54 55 57 59 62 64 66 66 66 65 64 61 58 55 54 52 50 50 49 48 46 45 43 40 37 35 32 29 27 26 24 23 23 23 22 22 23 23 23 25 26
52 53 54 55 55 57 59 61 64 68 70 70 70 69 66 63 59 57 55 54 52 51 50 48 46 44 40 37 34 31 29 27 25 24 24 23 23 23 23 23 24 25 26
51 52 53 54 55 55 56 58 60 63 67 70 72 72 72 70 67 64 60 58 56 54 52 51 49 47 43 40 37 34 31 29 27 25 24 24 24 23 23 24 24 25 26
51 52 53 53 54 54 54 55 57 59 62 65 69 71 73 73 72 69 64 61 59 58 55 53 51 49 46 42 39 36 34 31 29 27 25 25 24 24 24 24 24 25 25
50 50 51 52 53 53 53 52 53 55 57 59 63 67 70 72 73 72 69 66 64 62 59 57 53 51 48 45 42 39 36 33 31 28 26 26 25 25 25 24 24 25 25
48 48 48 49 51 51 51 50 50 51 52 54 56 60 64 68 71 72 72 69 67 63 62 59 56 53 50 47 44 41 38 35 32 30 28 27 26 25 25 24 24 23 24
44 44 44 45 47 48 49 49 49 48 48 49 50 52 56 61 66 69 71 71 69 66 63 61 58 55 52 49 47 43 40 37 34 30 29 27 26 25 25 24 23 22 23
39 39 40 40 42 44 46 48 47 47 46 46 45 45 47 51 56 61 65 68 70 69 65 61 57 55 52 50 48 45 41 37 35 31 29 28 27 26 25 24 23 22 22
34 35 37 38 39 41 43 45 45 44 44 43 41 40 40 42 46 50 56 61 64 66 67 63 60 55 53 50 47 45 43 39 35 32 30 29 27 26 25 23 23 22 22
29 30 31 34 36 38 41 42 43 42 41 40 39 38 37 37 38 40 44 50 55 58 62 62 58 56 53 49 46 44 42 39 36 33 31 29 27 26 25 23 23 22 22
Wind_Direction
282 279 275 271 269 266 262 258 257 255 253 252 252 251 250 248 248 249 247 246 248 248 250 251 252 252 253 253 253 252 248 246 241 236 231 230 230 229 229 229 230 230 229
285 280 275 270 266 264 261 256 256 254 253 252 251 250 249 248 247 246 246 246 246 247 249 250 253 252 254 254 257 256 254 252 246 242 236 233 232 230 228 229 229 230 231
286 281 275 271 265 261 259 256 254 255 252 252 250 249 248 247 246 245 245 245 246 246 247 247 249 250 252 254 256 257 256 253 248 244 242 239 236 233 229 228 229 231 232
286 282 277 272 266 261 259 257 255 254 253 250 248 247 247 246 244 243 243 243 243 243 243 244 244 247 250 252 254 257 258 258 253 247 243 244 241 236 231 228 229 231 232
283 283 277 271 267 261 257 254 252 252 250 248 247 245 244 244 242 241 241 240 239 239 239 239 241 243 246 249 252 255 258 259 257 251 248 246 244 240 236 231 230 231 232
285 283 279 275 269 259 252 249 250 249 247 247 245 243 243 241 239 237 237 236 236 236 235 236 237 238 241 245 250 254 258 260 259 257 253 249 247 243 241 237 233 232 232
285 282 279 276 269 255 246 246 247 245 244 243 241 241 241 238 237 235 234 233 232 232 232 232 233 234 237 242 249 256 260 262 264 263 261 255 249 247 244 242 238 234 233
282 281 278 274 266 256 250 246 243 242 242 241 241 240 239 238 236 234 232 231 230 230 230 229 231 234 238 243 249 257 262 266 267 267 265 262 256 253 249 246 243 239 236
282 279 273 270 266 258 251 245 240 239 239 240 241 240 238 237 235 234 232 229 229 230 230 229 232 235 239 244 250 258 265 270 272 273 271 268 263 257 252 248 247 242 239
279 276 271 265 262 260 255 247 239 237 236 239 240 239 238 236 234 233 231 230 230 230 230 231 233 236 239 244 251 259 264 269 272 274 274 272 268 264 260 253 250 248 244
274 273 268 263 260 257 254 250 241 236 237 239 240 239 238 236 235 233 231 230 231 231 231 232 234 237 240 244 251 258 264 267 271 274 276 275 270 266 262 258 254 251 248
270 268 265 260 257 255 252 250 247 243 241 239 239 239 239 237 236 234 232 231 232 232 232 233 234 237 240 244 250 257 262 266 269 273 277 277 274 268 263 260 256 253 250
268 265 262 259 255 252 250 248 247 245 243 240 238 239 239 238 237 235 234 233 233 233 233 234 235 237 240 243 249 255 261 265 268 273 276 278 276 271 265 261 256 254 250
268 264 260 257 254 251 248 246 245 244 242 241 239 238 239 239 238 236 235 234 233 234 234 234 235 237 239 242 247 253 259 264 267 271 275 278 278 273 267 262 258 254 251
268 265 261 257 253 251 248 245 243 242 241 241 240 239 239 238 238 237 236 235 234 234 235 235 235 236 238 241 244 250 256 261 265 270 273 276 277 274 267 263 260 256 252
270 266 263 259 255 251 248 245 243 241 240 238 238 238 238 239 239 237 236 235 235 235 235 235 236 236 237 239 242 247 253 258 263 269 272 273 275 275 271 267 261 256 254
272 269 265 261 257 253 249 246 243 241 240 239 238 237 237 238 238 237 237 236 235 235 235 235 236 237 237 238 240 245 250 255 260 266 270 271 273 275 273 269 263 257 254
273 269 265 262 258 254 251 248 245 242 240 239 238 237 237 237 237 238 237 236 236 235 235 235 236 237 237 238 239 242 246 251 257 263 267 268 271 274 273 269 264 259 256
274 270 265 260 256 254 251 248 246 244 241 239 239 238 238 237 236 237 237 237 236 236 235 234 235 236 236 237 239 241 244 248 253 259 263 265 268 271 272 269 264 260 257
275 269 264 259 255 252 250 248 246 244 242 240 239 238 238 238 238 238 237 237 236 235 235 234 233 234 235 236 238 239 242 246 250 255 260 263 267 270 271 268 263 260 258
274 268 263 259 255 251 248 246 245 243 242 241 240 238 238 238 238 237 237 236 236 235 235 234 233 232 233 235 236 237 240 243 247 252 257 260 264 268 269 267 264 261 258
273 268 262 257 252 249 246 244 243 242 241 241 240 239 238 237 238 237 237 236 236 236 236 235 234 233 232 234 235 236 238 240 243 248 253 258 262 266 267 266 263 260 257
273 266 260 254 249 247 245 243 241 240 239 240 240 239 239 238 238 238 238 237 236 236 236 236 234 233 232 232 233 234 235 237 239 244 250 255 259 264 265 263 261 258 255
275 266 257 251 246 243 243 241 239 238 237 237 238 239 240 240 239 239 238 238 238 237 236 235 233 233 232 231 231 231 233 236 237 241 247 252 256 261 262 260 259 257 255
276 266 255 248 243 241 240 239 236 234 233 233 234 236 237 239 239 239 238 238 238 238 237 235 234 233 234 232 231 230 231 234 236 239 244 249 253 258 259 258 256 256 255
279 267 256 247 241 238 237 234 232 231 228 228 230 232 233 235 237 236 236 236 235 235 235 235 233 231 231 231 230 230 230 231 234 238 242 247 251 254 254 254 254 254 253
Height
5857 5855 5854 5852 5852 5852 5853 5854 5856 5857 5858 5859 5861 5862 5863 5864 5865 5867 5868 5869 5870 5872 5873 5874 5874 5875 5876 5876 5877 5878 5880 5881 5883 5884 5886 5889 5891 5894 5896 5898 5901 5903 5904
5848 5846 5844 5843 5843 5843 5844 5846 5847 5849 5851 5853 5854 5855 5857 5858 5859 5861 5862 5864 5865 5866 5868 5869 5870 5870 5871 5872 5873 5874 5875 5876 5878 5879 5882 5884 5886 5889 5891 5894 5896 5899 5901
5839 5837 5835 5834 5834 5834 5835 5837 5838 5841 5843 5845 5847 5848 5850 5852 5853 5855 5856 5858 5859 5861 5862 5863 5865 5866 5866 5867 5868 5869 5870 5871 5873 5875 5876 5878 5881 5884 5886 5889 5892 5895 5897
5831 5828 5826 5825 5824 5824 5826 5828 5830 5832 5835 5837 5839 5841 5843 5845 5847 5849 5850 5852 5853 5855 5857 5858 5859 5861 5862 5863 5864 5865 5866 5866 5868 5869 5871 5873 5875 5878 5881 5884 5887 5890 5893
5822 5820 5817 5815 5815 5815 5817 5820 5822 5824 5827 5830 5832 5835 5837 5838 5840 5843 5845 5847 5848 5850 5851 5853 5854 5856 5858 5859 5860 5860 5861 5862 5863 5864 5866 5868 5870 5872 5875 5878 5881 5884 5888
5814 5811 5809 5807 5807 5807 5808 5812 5815 5817 5819 5822 5825 5827 5830 5831 5834 5836 5839 5841 5843 5845 5846 5848 5850 5851 5853 5854 5855 5856 5857 5858 5858 5859 5861 5863 5865 5867 5869 5872 5875 5878 5882
5806 5803 5802 5800 5799 5799 5801 5804 5807 5809 5812 5815 5818 5820 5823 5825 5827 5830 5833 5835 5837 5839 5841 5843 5845 5847 5848 5850 5851 5852 5853 5853 5854 5855 5856 5858 5859 5861 5863 5866 5869 5872 5875
5798 5795 5793 5793 5793 5793 5795 5797 5799 5802 5805 5808 5810 5813 5816 5819 5821 5823 5826 5829 5832 5834 5836 5838 5840 5842 5844 5845 5847 5848 5849 5849 5850 5851 5852 5853 5854 5856 5858 5860 5863 5866 5869
5789 5788 5786 5786 5786 5787 5787 5789 5791 5794 5797 5800 5803 5806 5809 5811 5814 5817 5820 5822 5825 5828 5831 5833 5835 5837 5839 5841 5842 5844 5845 5845 5846 5847 5848 5849 5850 5851 5852 5855 5857 5859 5862
5780 5779 5778 5779 5779 5779 5780 5781 5783 5786 5789 5792 5795 5798 5801 5804 5807 5810 5814 5816 5819 5822 5825 5827 5830 5833 5834 5836 5838 5839 5840 5841 5841 5842 5843 5844 5845 5846 5847 5849 5851 5853 5855
5770 5769 5769 5770 5770 5771 5772 5773 5775 5777 5780 5783 5786 5790 5792 5796 5799 5802 5806 5809 5812 5815 5818 5821 5824 5827 5829 5831 5833 5834 5835 5836 5837 5837 5838 5839 5839 5840 5841 5843 5844 5846 5848
5758 5758 5758 5759 5760 5761 5763 5765 5766 5768 5771 5774 5777 5781 5784 5787 5791 5794 5798 5801 5805 5808 5812 5815 5818 5820 5823 5825 5827 5829 5830 5831 5832 5832 5833 5833 5833 5834 5835 5836 5838 5839 5841
5744 5744 5745 5746 5747 5749 5751 5753 5755 5758 5761 5764 5767 5771 5774 5778 5781 5785 5789 5793 5797 5800 5804 5807 5811 5814 5816 5819 5821 5823 5824 5825 5826 5827 5827 5827 5827 5828 5829 5830 5831 5832 5834
5727 5727 5729 5730 5732 5734 5737 5739 5742 5745 5749 5752 5756 5760 5764 5768 5771 5775 5780 5784 5788 5792 5795 5799 5803 5806 5809 5812 5814 5816 5818 5819 5820 5821 5821 5822 5822 5822 5822 5823 5824 5825 5826
5710 5709 5710 5712 5715 5717 5720 5724 5727 5731 5735 5739 5743 5748 5752 5756 5760 5765 5769 5774 5778 5782 5786 5790 5794 5798 5802 5805 5807 5810 5812 5813 5814 5815 5815 5815 5815 5816 5816 5816 5817 5818 5820
5693 5692 5692 5693 5695 5698 5701 5706 5710 5714 5719 5723 5729 5734 5739 5743 5748 5752 5757 5762 5767 5772 5776 5781 5785 5789 5794 5797 5800 5803 5805 5806 5807 5808 5809 5809 5809 5810 5810 5810 5810 5811 5813
5675 5674 5673 5674 5676 5678 5681 5686 5690 5696 5701 5706 5712 5717 5723 5729 5734 5739 5744 5749 5755 5761 5766 5771 5775 5780 5785 5789 5792 5795 5797 5799 5801 5802 5802 5803 5803 5803 5803 5804 5804 5805 5806
5656 5654 5654 5654 5656 5658 5661 5665 5670 5675 5681 5687 5693 5699 5706 5712 5719 5725 5731 5736 5742 5748 5754 5760 5765 5770 5775 5780 5784 5787 5790 5792 5794 5795 5796 5796 5797 5797 5797 5797 5798 5799 5800
5636 5634 5634 5635 5636 5639 5642 5646 5650 5655 5661 5668 5674 5681 5688 5695 5702 5708 5715 5722 5729 5735 5742 5748 5754 5759 5765 5771 5775 5779 5782 5785 5786 5788 5789 5790 5791 5791 5791 5791 5792 5792 5793
5616 5614 5614 5615 5617 5620 5623 5627 5631 5636 5642 5648 5655 5662 5669 5677 5684 5691 5699 5707 5715 5722 5729 5735 5742 5749 5755 5761 5766 5770 5774 5777 5779 5781 5782 5784 5784 5785 5785 5785 5785 5786 5787
5595 5594 5594 5595 5598 5601 5605 5610 5614 5619 5625 5630 5637 5644 5651 5659 5667 5675 5683 5692 5700 5707 5715 5723 5730 5737 5744 5750 5756 5761 5765 5769 5771 5773 5775 5777 5778 5779 5779 5779 5779 5780 5780
5575 5574 5575 5576 5579 5583 5588 5593 5598 5604 5609 5615 5621 5627 5634 5641 5649 5658 5667 5676 5685 5693 5701 5709 5718 5726 5733 5740 5746 5751 5756 5761 5764 5766 5768 5770 5772 5772 5773 5773 5773 5774 5774
5555 5555 5556 5558 5562 5567 5572 5578 5583 5589 5596 5601 5607 5613 5618 5625 5633 5642 5650 5659 5669 5678 5687 5696 5705 5714 5722 5729 5736 5742 5747 5752 5755 5758 5761 5763 5765 5766 5766 5766 5767 5767 5769
5538 5538 5539 5542 5546 5551 5556 5562 5568 5575 5582 5589 5595 5600 5606 5612 5619 5626 5634 5643 5652 5663 5674 5684 5694 5702 5710 5717 5724 5731 5737 5742 5747 5751 5754 5756 5758 5759 5760 5761 5761 5762 5763
5523 5523 5524 5527 5531 5536 5541 5547 5554 5562 5570 5578 5584 5590 5595 5601 5607 5614 5622 5630 5639 5648 5658 5670 5680 5689 5698 5707 5714 5721 5728 5734 5739 5743 5746 5749 5751 5752 5753 5754 5755 5756 5757
5510 5510 5511 5514 5518 5523 5529 5535 5542 5551 5560 5568 5575 5581 5586 5592 5596 5602 5608 5616 5625 5634 5645 5656 5668 5678 5688 5696 5704 5712 5719 5725 5730 5735 5739 5741 5744 5745 5747 5748 5749 5750 5751